Regional Weather Roundup
Issued by NWS

Home | Current Version | Previous Version | Graphics & Text | Print | Product List | Glossary On
Versions: 1 2 3 4 5 6 7 8 9 10 11 12 13 14 15 16 17 18 19 20 21 22 23 24 25 26 27 28 29 30 31 32 33 34 35 36 37 38 39 40 41 42 43 44 45 46 47 48 49 50
000
ASUS45 KABQ 301910
RWRNM
WEATHER ROUNDUP FOR NEW MEXICO
NATIONAL WEATHER SERVICE ALBUQUERQUE NM
100 PM MDT TUE SEP 30 2014

NOTE: "FAIR" MEANS FEW OR NO CLOUDS BELOW 12,000 FEET AGL WITH NO
       SIGNIFICANT WEATHER OR OBSTRUCTIONS TO VISION.

      THIS PRODUCT IS RELEASED AS TWO VERSIONS.  ONE VERSION NEAR
      THE TOP OF THE HOUR CONTAINING PRELIMINARY DATA FROM ALBUQUERQUE
      AND OTHER STATIONS.  A FINAL VERSION WITH ADDITIONAL DATA IS
      ISSUED ABOUT 10 MINUTES AFTER THE HOUR.

NMZ501-503-504-510>518-302000-
NORTHWEST PLATEAU/NORTHCENTRAL MOUNTAINS

CITY           SKY/WX    TMP DP  RH WIND       PRES   REMARKS
FARMINGTON     SUNNY     64  36  35 VRB3      30.02F
LOS ALAMOS     SUNNY     58  32  36 E6        30.06F
SANTA FE       SUNNY     65  29  25 W8G20     30.01F
TAOS           SUNNY     57  34  41 SW7       30.04F
ANGEL FIRE     FAIR      54  31  42 W14G21    30.08F

$$
NMZ402-403-502-505>509-302000-
WESTCENTRAL MOUNTAINS/SOUTHWEST MOUNTAINS

CITY           SKY/WX    TMP DP  RH WIND       PRES   REMARKS
GALLUP         SUNNY     64  37  36 SW10      30.07F
GRANTS         SUNNY     64  30  27 CALM      30.06F
SILVER CITY    SUNNY     72  30  21 W12       30.04F

$$
NMZ407-409-411-412-302000-
SOUTHERN DESERTS

CITY           SKY/WX    TMP DP  RH WIND       PRES   REMARKS
LORDSBURG      FAIR      75  37  25 MISG      29.98F
DEMING         SUNNY     77  45  32 SW15G21   29.97F
LAS CRUCES     SUNNY     78  41  26 SW14G23   29.98F
HOLLOMAN AFB   MOSUNNY   80  31  17 SW9G17    29.93F
ALAMOGORDO     MOSUNNY   79  32  18 SW10G17   29.95F
T OR C         SUNNY     74  36  25 S8        29.96F

$$
NMZ519>523-302000-
CENTRAL VALLEYS/CENTRAL HIGHLANDS

CITY           SKY/WX    TMP DP  RH WIND       PRES   REMARKS
ALBUQUERQUE    SUNNY     68  31  25 CALM      30.00F
DOUBLE EAGLE   SUNNY     66  30  26 SW5       30.03F
MORIARTY ARPT  FAIR      69  29  22 W13G25    30.02F
CLINES CORNERS SUNNY     65  31  28 W15G31    30.03F
BELEN          FAIR      70  32  24 CALM      29.99F
SOCORRO        FAIR      72  33  24 E3        29.98F

$$
NMZ524>526-539-540-302000-
SOUTHCENTRAL MOUNTAINS

CITY           SKY/WX    TMP DP  RH WIND       PRES   REMARKS
RUIDOSO        NOT AVBL

$$
NMZ527>531-302000-
NORTHEAST HIGHLANDS/NORTHEAST PLAINS

CITY           SKY/WX    TMP DP  RH WIND       PRES   REMARKS
LAS VEGAS      SUNNY     67  31  26 SE9G17    29.98F
RATON          SUNNY     68  29  23 MISG      29.90F
CLAYTON        SUNNY     71  33  24 CALM      29.87F

$$
NMZ532>537-302000-
EASTCENTRAL PLAINS

CITY           SKY/WX    TMP DP  RH WIND       PRES   REMARKS
TUCUMCARI      SUNNY     78  39  24 W20       29.85F
CANNON AFB     SUNNY     76  39  26 W12       29.90F
CLOVIS AIRPORT   N/A     77  39  25 W12G23    29.92F

$$
NMZ028-029-538-302000-
SOUTHEAST PLAINS

CITY           SKY/WX    TMP DP  RH WIND       PRES   REMARKS
ROSWELL        SUNNY     81  41  24 VRB6      29.89F
CARLSBAD       SUNNY     82  57  42 VRB7      29.87F
HOBBS          SUNNY     82  52  34 SW14G21   29.90F


$$



USA.gov is the U.S. government's official web portal to all federal, state and local government web resources and services.